Home > Weather > Oceanside > Past weeks

Flag for USA Weather for the Past 2 Weeks in Oceanside, California, USA

Now
63 °F

Sunny.


Feels Like: 63 °F
Forecast: 56 / 65 °F
Wind: 8 mph from Southwest

Location: Oceanside Weather Reporting Station

Current Time: May 6, 2016 at 3:56:23 PM

Latest Report: May 6, 2016 at 2:52 PM


Visibility: 10 mi

Pressure: 29.90 "Hg

Humidity: 73%

Dew Point: 54 °F

Location of OceansideLocation

Historic Weather in Oceanside — Graph

°F

Oceanside Temperature Yesterday

Maximum temperature yesterday: 68 °F (at 10:52 AM)
Minimum temperature yesterday: 58 °F (at 12:52 AM)
Average temperature yesterday: 62 °F

High & Low Weather Summary for the Past Weeks

 TemperatureHumidityPressure
High73 °F (Apr 21, 2:52 PM)93% (Apr 22, 1:52 AM)30.04 "Hg (Apr 22, 1:52 AM)
Low46 °F (Apr 24, 5:52 AM)44% (Apr 21, 2:52 PM)29.78 "Hg (Apr 28, 4:52 AM)
Average60 °F70%29.92 "Hg
* Reported Apr 21 2:52 PM — May 6 2:52 PM, Oceanside, Weather by CustomWeather, © 2016

Note: Actual official high and low records may vary slightly from our data, if they occured in-between our weather recording intervals... More about our weather records

Advertising

Oceanside Weather History for the Previous 24 Hours

Scroll right to see more
 ConditionsComfort  
Time TempWeatherWind HumidityBarometerVisibility
2:52 PM
Fri, May 6
63 °FSunny.8 mph73%29.90 "Hg10 mi
1:52 PM62 °FSunny.8 mph73%29.91 "Hg10 mi
12:52 PM60 °FLight rain. Mostly cloudy.3 mph78%29.91 "Hg10 mi
11:52 AM60 °FPartly sunny.8 mph80%29.93 "Hg10 mi
10:52 AM59 °FLight rain. More clouds than sun.6 mph84%29.92 "Hg5 mi
9:52 AM58 °FLight rain. More clouds than sun.6 mph87%29.90 "Hg8 mi
8:52 AM58 °FLight rain. More clouds than sun.6 mph87%29.89 "Hg10 mi
7:59 AM57 °FRain. Fog.3 mph90%29.88 "Hg3 mi
6:52 AM56 °FLight rain. Fog.No wind90%29.86 "Hg5 mi
5:52 AM55 °FMostly cloudy.No wind90%29.84 "Hg9 mi
4:52 AM54 °FOvercast.No wind93%29.83 "Hg10 mi
3:52 AM52 °FPassing clouds.5 mph93%29.83 "Hg10 mi
2:52 AM53 °FClear.No wind93%29.83 "Hg10 mi
1:52 AM56 °FPassing clouds.No wind90%29.85 "Hg10 mi
12:52 AM57 °FPassing clouds.No wind90%29.88 "Hg10 mi
11:52 PM
Thu, May 5
59 °FLight rain. Fog.9 mph87%29.88 "Hg6 mi
10:52 PM60 °FPassing clouds.3 mph67%29.88 "Hg10 mi
9:52 PM61 °FOvercast.5 mph65%29.88 "Hg10 mi
8:52 PM62 °FMostly cloudy.7 mph62%29.88 "Hg10 mi
7:52 PM62 °FOvercast.7 mph62%29.86 "Hg10 mi
6:52 PM63 °FMore clouds than sun.9 mph63%29.85 "Hg10 mi
5:52 PM65 °FOvercast.8 mph59%29.86 "Hg10 mi
4:52 PM66 °FOvercast.10 mph59%29.88 "Hg10 mi
3:52 PM68 °FOvercast.10 mph51%29.90 "Hg10 mi
Weather by CustomWeather, © 2016

See weather overviewHow to use our weather pages